TimeMST,TemperatureF,Dew PointF,Humidity,Sea Level PressureIn,VisibilityMPH,Wind Direction,Wind SpeedMPH,Gust SpeedMPH,PrecipitationIn,Events,Conditions,WindDirDegrees,DateUTC
12:15 AM,28.4,12.2,51,30.10,10.0,NNW,6.9,-,N/A,,Overcast,330,2013-02-27 07:15:00
12:36 AM,26.6,12.2,55,30.10,10.0,NNW,6.9,-,N/A,,Overcast,330,2013-02-27 07:36:00
12:56 AM,26.6,12.2,55,30.11,10.0,NW,4.6,-,N/A,,Scattered Clouds,310,2013-02-27 07:56:00
1:16 AM,26.6,10.4,51,30.11,10.0,NNW,6.9,-,N/A,,Clear,330,2013-02-27 08:16:00
1:33 AM,26.6,10.4,51,30.12,10.0,NW,6.9,-,N/A,,Clear,320,2013-02-27 08:33:00
1:56 AM,26.6,10.4,51,30.12,10.0,NW,4.6,-,N/A,,Clear,310,2013-02-27 08:56:00
2:15 AM,26.6,10.4,51,30.12,10.0,NW,3.5,-,N/A,,Scattered Clouds,320,2013-02-27 09:15:00
2:32 AM,23.0,8.6,54,30.12,10.0,NW,3.5,-,N/A,,Scattered Clouds,310,2013-02-27 09:32:00
2:56 AM,24.8,8.6,50,30.12,10.0,Calm,Calm,-,N/A,,Scattered Clouds,0,2013-02-27 09:56:00
3:15 AM,24.8,8.6,50,30.13,10.0,Calm,Calm,-,N/A,,Clear,0,2013-02-27 10:15:00
3:32 AM,23.0,8.6,54,30.12,10.0,NW,3.5,-,N/A,,Clear,320,2013-02-27 10:32:00
3:56 AM,26.6,6.8,43,30.13,10.0,West,3.5,-,N/A,,Clear,280,2013-02-27 10:56:00
4:13 AM,19.4,6.8,58,30.14,10.0,Calm,Calm,-,N/A,,Clear,0,2013-02-27 11:13:00
4:34 AM,23.0,6.8,50,30.14,10.0,Calm,Calm,-,N/A,,Clear,0,2013-02-27 11:34:00
5:47 AM,23.0,5.0,46,30.17,30.0,Calm,Calm,-,N/A,,Mostly Cloudy,0,2013-02-27 12:47:00
6:47 AM,17.6,3.2,53,30.18,30.0,SW,3.5,-,N/A,,Scattered Clouds,230,2013-02-27 13:47:00
7:45 AM,19.4,3.2,49,30.19,30.0,WSW,9.2,-,N/A,,Scattered Clouds,250,2013-02-27 14:45:00
8:47 AM,24.8,6.8,46,30.19,50.0,Calm,Calm,-,N/A,,Scattered Clouds,0,2013-02-27 15:47:00
9:47 AM,30.2,6.8,37,30.20,50.0,Calm,Calm,-,N/A,,Scattered Clouds,0,2013-02-27 16:47:00
11:48 AM,33.8,3.2,28,30.19,70.0,Variable,3.5,-,N/A,,Scattered Clouds,0,2013-02-27 18:48:00
12:46 PM,35.6,5.0,28,30.18,70.0,Variable,5.8,-,N/A,,Scattered Clouds,0,2013-02-27 19:46:00
1:53 PM,33.8,6.8,32,30.16,70.0,East,6.9,-,N/A,,Partly Cloudy,100,2013-02-27 20:53:00
2:48 PM,33.8,8.6,35,30.16,50.0,East,10.4,-,N/A,,Partly Cloudy,100,2013-02-27 21:48:00
3:50 PM,32.0,10.4,41,30.16,50.0,ESE,11.5,-,N/A,,Partly Cloudy,110,2013-02-27 22:50:00
4:50 PM,32.0,12.2,44,30.17,50.0,ESE,10.4,-,N/A,,Partly Cloudy,110,2013-02-27 23:50:00
5:53 PM,28.4,10.4,47,30.18,40.0,ESE,8.1,-,N/A,,Partly Cloudy,110,2013-02-28 00:53:00
7:55 PM,26.6,10.4,51,30.20,50.0,South,4.6,-,N/A,,Partly Cloudy,190,2013-02-28 02:55:00
8:48 PM,26.6,8.6,47,30.19,30.0,Calm,Calm,-,N/A,,Clear,0,2013-02-28 03:48:00
9:48 PM,26.6,-0.4,31,30.19,30.0,WNW,11.5,-,N/A,,Clear,300,2013-02-28 04:48:00
10:16 PM,26.6,-0.4,31,30.18,10.0,NW,13.8,-,N/A,,Clear,310,2013-02-28 05:16:00
10:32 PM,26.6,1.4,34,30.18,10.0,WNW,15.0,-,N/A,,Clear,300,2013-02-28 05:32:00
10:54 PM,26.6,-0.4,31,30.18,10.0,NW,8.1,-,N/A,,Clear,310,2013-02-28 05:54:00
11:16 PM,23.0,1.4,39,30.18,10.0,NNW,6.9,-,N/A,,Clear,330,2013-02-28 06:16:00
11:33 PM,23.0,1.4,39,30.18,10.0,WSW,3.5,-,N/A,,Clear,240,2013-02-28 06:33:00
11:56 PM,23.0,1.4,39,30.18,10.0,West,4.6,-,N/A,,Clear,280,2013-02-28 06:56:00